• în România
  • Lista ţărilor
  • Pe 7 zile
  • Temperatura apei
  • Hartă satelitară
  • Meteo pe hartă
  • Widget-uri
  • user-avatar
    Intrare

    Meteo pe oră la Sankt Polten

    Astăzi, 23 Iunie, Vineri

    Timp Temperatura Precipitaţii Vânt Presiune Umiditate
    00:00 +24°C° 0,1 mm 2 m/s 734 mmHg 80%
    01:00 +24°C° 0,1 mm 2 m/s 734 mmHg 79%
    02:00 +24°C° 0 mm 3 m/s 734 mmHg 80%
    03:00 +22°C° 0 mm 3 m/s 734 mmHg 80%
    04:00 +22°C° 0 mm 3 m/s 733 mmHg 81%
    05:00 +23°C° 0 mm 4 m/s 733 mmHg 77%
    06:00 +25°C° 0 mm 5 m/s 734 mmHg 73%
    07:00 +26°C° 0 mm 5 m/s 734 mmHg 69%
    08:00 +27°C° 0,1 mm 6 m/s 734 mmHg 65%
    09:00 +28°C° 0,1 mm 7 m/s 734 mmHg 61%
    10:00 +29°C° 0,1 mm 8 m/s 735 mmHg 57%
    11:00 +29°C° 0,2 mm 8 m/s 735 mmHg 57%
    12:00 +29°C° 0,2 mm 8 m/s 735 mmHg 56%
    13:00 +30°C° 0,2 mm 7 m/s 735 mmHg 56%
    14:00 +29°C° 0,1 mm 7 m/s 735 mmHg 57%
    15:00 +29°C° 0,1 mm 6 m/s 735 mmHg 59%
    16:00 +29°C° 0,1 mm 6 m/s 735 mmHg 60%
    17:00 +27°C° 0 mm 5 m/s 735 mmHg 65%
    18:00 +26°C° 0 mm 4 m/s 735 mmHg 71%
    19:00 +25°C° 0 mm 4 m/s 735 mmHg 76%
    20:00 +24°C° 0 mm 3 m/s 736 mmHg 80%
    21:00 +22°C° 0 mm 3 m/s 736 mmHg 85%
    22:00 +20°C° 0 mm 3 m/s 737 mmHg 89%
    23:00 +20°C° 0 mm 2 m/s 737 mmHg 91%

    Mâine, 24 Iunie, Sâmbătă

    Timp Temperatura Precipitaţii Vânt Presiune Umiditate
    00:00 +19°C° 0 mm 2 m/s 737 mmHg 93%
    01:00 +18°C° 0 mm 2 m/s 737 mmHg 94%
    02:00 +18°C° 0 mm 2 m/s 737 mmHg 95%
    03:00 +18°C° 0 mm 2 m/s 737 mmHg 95%
    04:00 +18°C° 0 mm 2 m/s 737 mmHg 95%
    05:00 +19°C° 0 mm 2 m/s 737 mmHg 89%
    06:00 +21°C° 0 mm 2 m/s 737 mmHg 82%
    07:00 +22°C° 0 mm 3 m/s 738 mmHg 75%
    08:00 +25°C° 0 mm 3 m/s 738 mmHg 70%
    09:00 +26°C° 0 mm 4 m/s 738 mmHg 64%
    10:00 +27°C° 0 mm 4 m/s 738 mmHg 59%
    11:00 +28°C° 0,1 mm 4 m/s 737 mmHg 56%
    12:00 +29°C° 0,1 mm 4 m/s 737 mmHg 54%
    13:00 +30°C° 0,1 mm 4 m/s 736 mmHg 51%
    14:00 +30°C° 0,2 mm 4 m/s 736 mmHg 52%
    15:00 +30°C° 0,2 mm 3 m/s 736 mmHg 54%
    16:00 +30°C° 0,2 mm 3 m/s 735 mmHg 55%
    17:00 +28°C° 0,5 mm 2 m/s 735 mmHg 64%
    18:00 +27°C° 0,5 mm 2 m/s 735 mmHg 73%
    19:00 +25°C° 0,5 mm 1 m/s 735 mmHg 83%
    20:00 +24°C° 0,5 mm 1 m/s 735 mmHg 85%
    21:00 +22°C° 0,5 mm 1 m/s 735 mmHg 88%
    22:00 +21°C° 0,5 mm 1 m/s 736 mmHg 90%
    23:00 +20°C° 0,3 mm 2 m/s 736 mmHg 91%

    Poimâine, 25 Iunie, Duminică

    Timp Temperatura Precipitaţii Vânt Presiune Umiditate
    00:00 +20°C° 0,3 mm 2 m/s 736 mmHg 91%
    01:00 +20°C° 0,3 mm 2 m/s 736 mmHg 91%
    02:00 +20°C° 0,9 mm 2 m/s 736 mmHg 92%
    03:00 +19°C° 0,9 mm 2 m/s 736 mmHg 93%
    04:00 +19°C° 0,9 mm 2 m/s 736 mmHg 94%
    05:00 +19°C° 0,1 mm 2 m/s 736 mmHg 92%
    06:00 +19°C° 0,1 mm 2 m/s 736 mmHg 91%
    07:00 +20°C° 0,1 mm 2 m/s 736 mmHg 89%
    08:00 +21°C° 0,1 mm 2 m/s 736 mmHg 81%
    09:00 +24°C° 0,1 mm 2 m/s 736 mmHg 74%
    10:00 +25°C° 0,1 mm 2 m/s 736 mmHg 66%
    11:00 +25°C° 0,3 mm 3 m/s 736 mmHg 66%
    12:00 +26°C° 0,3 mm 3 m/s 735 mmHg 65%
    13:00 +26°C° 0,3 mm 3 m/s 735 mmHg 65%
    14:00 +26°C° 0,4 mm 3 m/s 735 mmHg 68%
    15:00 +25°C° 0,4 mm 3 m/s 735 mmHg 71%
    16:00 +25°C° 0,4 mm 3 m/s 735 mmHg 75%
    17:00 +24°C° 0,1 mm 3 m/s 735 mmHg 76%
    18:00 +24°C° 0,1 mm 3 m/s 735 mmHg 78%
    19:00 +22°C° 0,1 mm 3 m/s 735 mmHg 80%
    20:00 +21°C° 0 mm 2 m/s 736 mmHg 83%
    21:00 +19°C° 0 mm 2 m/s 736 mmHg 87%
    22:00 +18°C° 0 mm 2 m/s 736 mmHg 91%
    23:00 +17°C° 0 mm 2 m/s 736 mmHg 91%

    26 Iunie, Luni

    Timp Temperatura Precipitaţii Vânt Presiune Umiditate
    00:00 +17°C° 0 mm 2 m/s 736 mmHg 92%
    01:00 +16°C° 0 mm 2 m/s 736 mmHg 93%
    02:00 +16°C° 0 mm 2 m/s 736 mmHg 93%
    03:00 +15°C° 0 mm 2 m/s 736 mmHg 94%
    04:00 +15°C° 0 mm 2 m/s 736 mmHg 95%
    05:00 +17°C° 0 mm 2 m/s 736 mmHg 89%
    06:00 +18°C° 0 mm 2 m/s 737 mmHg 84%
    07:00 +20°C° 0 mm 2 m/s 737 mmHg 78%
    08:00 +23°C° 0 mm 2 m/s 737 mmHg 72%
    09:00 +24°C° 0 mm 2 m/s 737 mmHg 66%
    10:00 +25°C° 0 mm 2 m/s 737 mmHg 60%
    11:00 +26°C° 0 mm 2 m/s 737 mmHg 58%
    12:00 +27°C° 0 mm 2 m/s 737 mmHg 56%
    13:00 +28°C° 0 mm 1 m/s 736 mmHg 55%
    14:00 +28°C° 0 mm 1 m/s 736 mmHg 54%
    15:00 +28°C° 0 mm 1 m/s 736 mmHg 54%
    16:00 +29°C° 0 mm 1 m/s 735 mmHg 54%
    17:00 +27°C° 0 mm 1 m/s 735 mmHg 61%
    18:00 +26°C° 0 mm 2 m/s 735 mmHg 68%
    19:00 +25°C° 0 mm 2 m/s 735 mmHg 74%
    20:00 +23°C° 0 mm 2 m/s 735 mmHg 79%
    21:00 +21°C° 0 mm 2 m/s 735 mmHg 84%
    22:00 +19°C° 0 mm 2 m/s 735 mmHg 88%
    23:00 +19°C° 0 mm 2 m/s 735 mmHg 90%

    27 Iunie, Marţi

    Timp Temperatura Precipitaţii Vânt Presiune Umiditate
    00:00 +18°C° 0 mm 2 m/s 734 mmHg 91%
    01:00 +18°C° 0 mm 2 m/s 734 mmHg 92%
    02:00 +17°C° 0 mm 2 m/s 733 mmHg 93%
    03:00 +17°C° 0 mm 2 m/s 733 mmHg 93%
    04:00 +17°C° 0 mm 2 m/s 733 mmHg 94%
    05:00 +19°C° 0 mm 2 m/s 733 mmHg 88%
    06:00 +21°C° 0 mm 2 m/s 733 mmHg 82%
    07:00 +23°C° 0 mm 2 m/s 733 mmHg 76%
    08:00 +25°C° 0 mm 2 m/s 733 mmHg 70%
    09:00 +27°C° 0 mm 3 m/s 733 mmHg 64%
    10:00 +29°C° 0 mm 3 m/s 733 mmHg 58%
    11:00 +29°C° 0,4 mm 3 m/s 732 mmHg 58%
    12:00 +30°C° 0,4 mm 2 m/s 732 mmHg 57%
    13:00 +31°C° 0,4 mm 2 m/s 731 mmHg 57%
    14:00 +31°C° 0,5 mm 2 m/s 731 mmHg 56%
    15:00 +31°C° 0,5 mm 2 m/s 731 mmHg 54%
    16:00 +31°C° 0,5 mm 1 m/s 731 mmHg 53%
    17:00 +30°C° 0,2 mm 1 m/s 731 mmHg 61%
    18:00 +29°C° 0,2 mm 1 m/s 730 mmHg 69%
    19:00 +27°C° 0,2 mm 1 m/s 730 mmHg 77%
    20:00 +25°C° 0 mm 1 m/s 730 mmHg 80%
    21:00 +23°C° 0 mm 1 m/s 730 mmHg 84%
    22:00 +19°C° 0 mm 0 m/s 730 mmHg 87%
    23:00 +21°C° 0,1 mm 1 m/s 730 mmHg 87%

    28 Iunie, Miercuri

    Timp Temperatura Precipitaţii Vânt Presiune Umiditate
    00:00 +21°C° 0,1 mm 1 m/s 730 mmHg 87%
    01:00 +20°C° 0,1 mm 1 m/s 730 mmHg 86%
    02:00 +20°C° 0,1 mm 1 m/s 730 mmHg 87%
    03:00 +19°C° 0,1 mm 1 m/s 730 mmHg 89%
    04:00 +19°C° 0,1 mm 1 m/s 730 mmHg 90%
    05:00 +21°C° 0 mm 1 m/s 730 mmHg 84%
    06:00 +23°C° 0 mm 1 m/s 730 mmHg 78%
    07:00 +24°C° 0 mm 0 m/s 730 mmHg 72%
    08:00 +27°C° 0 mm 1 m/s 730 mmHg 67%
    09:00 +28°C° 0 mm 2 m/s 729 mmHg 61%
    10:00 +30°C° 0 mm 3 m/s 729 mmHg 55%
    11:00 +31°C° 0,1 mm 3 m/s 728 mmHg 52%
    12:00 +33°C° 0,1 mm 3 m/s 728 mmHg 48%
    13:00 +34°C° 0,1 mm 3 m/s 727 mmHg 44%
    14:00 +34°C° 0,3 mm 4 m/s 726 mmHg 44%
    15:00 +34°C° 0,3 mm 4 m/s 726 mmHg 44%
    16:00 +35°C° 0,3 mm 4 m/s 725 mmHg 43%
    17:00 +33°C° 0,1 mm 3 m/s 725 mmHg 50%
    18:00 +30°C° 0,1 mm 3 m/s 724 mmHg 56%
    19:00 +28°C° 0,1 mm 2 m/s 724 mmHg 62%
    20:00 +26°C° 0 mm 3 m/s 723 mmHg 63%
    21:00 +25°C° 0 mm 3 m/s 723 mmHg 64%
    22:00 +22°C° 0 mm 3 m/s 723 mmHg 64%
    23:00 +22°C° 0 mm 3 m/s 723 mmHg 66%
    Arată mai mult